Tracking 31027 objects as of 19-Jul-2025
HD Live streaming from Space Station
objects crossing your sky now

COSMOS 2160

Track COSMOS 2160 now!
10-day predictions
COSMOS 2160 is classified as:


NORAD ID: 21731
Int'l Code: 1991-068D
Perigee: 1,403.0 km
Apogee: 1,418.6 km
Inclination: 82.6 °
Period: 113.9 minutes
Semi major axis: 7781 km
RCS: 1.112 m2 (large)
Launch date: September 28, 1991
Source: Commonwealth of Independent States (former USSR) (CIS)
Launch site: PLESETSK MISSILE AND SPACE COMPLEX (PKMTR)
Your satellite tracking list
STARLINK-5403
Track 1 satellite(s)




NASA's NSSDC Master Catalog

Two Line Element Set (TLE):
1 21731U 91068D   25199.89861584  .00000028  00000-0  94891-4 0  9998
2 21731  82.5882 157.7155 0010014  53.6640 316.5660 12.64695405560628
Source of the keplerian elements: AFSPC